Change the Weather History Date:

Monday, March 10, 2014

  Actual Average Record
Temperature  
Mean Temperature 40 °F -  
Max Temperature 46 °F 36 °F 70 °F (2012)
Min Temperature 33 °F 26 °F -20 °F (1998)
Degree Days  
Heating Degree Days 26    
Moisture  
Dew Point 36 °F    
Average Humidity 92    
Maximum Humidity 100    
Minimum Humidity 71    
Precipitation  
Precipitation 0.15 in - - ()
Sea Level Pressure  
Sea Level Pressure 29.80 in    
Wind  
Wind Speed 10 mph (North)    
Max Wind Speed 15 mph    
Max Gust Speed -    
Visibility 9 miles    
Events Rain , Snow    
Averages and records for this station are not official NWS values.
T = Trace of Precipitation, MM = Missing Value Source: NWS Daily Summary

Daily Weather History Graph

Daily Weather History Graph

Search for Another Location

Airport or City:

Trip Planner

Search our weather history database for the weather conditions in past years. The results will help you decide how hot, cold, wet, or windy it might be!

Date:

Astronomy

Mar. 10, 2014 Rise Set
Actual Time 7:19 AM MDT 6:55 PM MDT
Civil Twilight 6:49 AM MDT 7:25 PM MDT
Nautical Twilight 6:14 AM MDT 8:00 PM MDT
Astronomical Twilight 5:39 AM MDT 8:36 PM MDT
Moon 1:28 PM MDT (3/10) 3:46 AM MDT (3/10)
Length of Visible Light 12h 36m
Length of Day
11h 36m
Waxing Gibbous, 70% of the Moon is Illuminated
Mar 10
Waxing Gibbous
Mar 16
Full
Mar 23
Last Quarter
Mar 30
New
Apr 7
First Quarter

Hourly Weather History & Observations

Time (MDT) Temp. Windchill Dew Point Humidity Pressure Visibility Wind Dir Wind Speed Gust Speed Precip Events Conditions
12:51 AM 46.0 °F 39.6 °F 37.0 °F 71% 29.78 in 10.0 mi West 15.0 mph - N/A   Clear
1:51 AM 39.9 °F 32.5 °F 35.1 °F 83% 29.80 in 10.0 mi West 12.7 mph - N/A   Clear
2:51 AM 39.9 °F 31.8 °F 35.1 °F 83% 29.79 in 10.0 mi West 15.0 mph - N/A   Clear
3:51 AM 39.0 °F 31.0 °F 35.1 °F 86% 29.77 in 10.0 mi WNW 13.8 mph - N/A   Clear
4:51 AM 37.9 °F 30.9 °F 35.1 °F 89% 29.77 in 10.0 mi WNW 10.4 mph - N/A   Clear
5:51 AM 33.1 °F 30.0 °F 32.0 °F 96% 29.81 in 10.0 mi WSW 3.5 mph - N/A   Clear
6:51 AM 37.0 °F - 34.0 °F 89% 29.82 in 10.0 mi Calm Calm - N/A   Clear
7:51 AM 35.1 °F - 33.1 °F 92% 29.84 in 10.0 mi Calm Calm - N/A   Overcast
8:51 AM 36.0 °F 32.1 °F 35.1 °F 97% 29.82 in 10.0 mi NW 4.6 mph - N/A   Overcast
9:51 AM 41.0 °F 38.0 °F 37.0 °F 86% 29.82 in 10.0 mi WSW 4.6 mph - N/A   Overcast
10:51 AM 41.0 °F 37.1 °F 37.0 °F 86% 29.83 in 10.0 mi NW 5.8 mph - N/A   Overcast
11:51 AM 44.1 °F 40.1 °F 37.0 °F 76% 29.80 in 10.0 mi North 6.9 mph - N/A   Overcast
12:51 PM 45.0 °F 40.6 °F 36.0 °F 71% 29.78 in 10.0 mi NNE 8.1 mph - N/A   Overcast
1:51 PM 44.1 °F 38.1 °F 36.0 °F 73% 29.78 in 10.0 mi North 11.5 mph - N/A   Overcast
2:51 PM 43.0 °F 36.0 °F 36.0 °F 76% 29.78 in 10.0 mi North 13.8 mph - N/A   Mostly Cloudy
3:51 PM 39.0 °F 31.8 °F 37.9 °F 96% 29.80 in 10.0 mi North 11.5 mph - 0.00 in Rain Light Rain
4:14 PM 37.9 °F 30.0 °F 37.9 °F 100% 29.75 in 8.0 mi North 12.7 mph - 0.00 in Rain Light Rain
4:26 PM 37.9 °F 30.5 °F 37.9 °F 100% 29.75 in 8.0 mi North 11.5 mph - 0.01 in Rain Light Rain
4:33 PM 37.9 °F 29.6 °F 37.9 °F 100% 29.75 in 7.0 mi NNE 13.8 mph - 0.01 in Rain Light Rain
4:43 PM 37.0 °F 28.9 °F 37.0 °F 100% 29.75 in 7.0 mi NNE 12.7 mph - 0.02 in Rain Light Rain
4:51 PM 37.0 °F 29.3 °F 37.0 °F 100% 29.79 in 10.0 mi North 11.5 mph - 0.02 in Rain Light Rain
5:18 PM 37.0 °F 29.3 °F 37.0 °F 100% 29.75 in 10.0 mi NE 11.5 mph - 0.00 in Rain Light Rain
5:51 PM 37.0 °F 30.4 °F 36.0 °F 96% 29.81 in 10.0 mi NNE 9.2 mph - 0.00 in Rain Light Rain
6:02 PM 36.0 °F 30.3 °F 36.0 °F 100% 29.76 in 10.0 mi NNE 6.9 mph - 0.01 in Rain Light Rain
6:38 PM 36.0 °F 31.1 °F 36.0 °F 100% 29.76 in 10.0 mi NE 5.8 mph - 0.01 in Rain Light Rain
6:51 PM 35.1 °F 30.1 °F 35.1 °F 100% 29.82 in 10.0 mi NE 5.8 mph - 0.02 in Rain Light Rain
7:51 PM 35.1 °F 27.4 °F 35.1 °F 100% 29.84 in 10.0 mi NE 10.4 mph - 0.01 in Rain Light Rain
8:23 PM 34.0 °F 28.8 °F 34.0 °F 100% 29.79 in 7.0 mi NNE 5.8 mph - 0.02 in Rain Light Rain
8:32 PM 34.0 °F 27.2 °F 34.0 °F 100% 29.80 in 8.0 mi NNE 8.1 mph - 0.02 in Rain Light Rain
8:51 PM 34.0 °F 26.6 °F 34.0 °F 100% 29.86 in 7.0 mi NE 9.2 mph - 0.04 in Snow Light Snow
9:51 PM 34.0 °F 29.8 °F 34.0 °F 100% 29.86 in 9.0 mi NE 4.6 mph - 0.02 in Rain Light Rain
10:51 PM 34.0 °F 28.0 °F 34.0 °F 100% 29.86 in 10.0 mi SSE 6.9 mph - 0.02 in   Overcast
11:51 PM 34.0 °F 28.8 °F 34.0 °F 100% 29.89 in 9.0 mi SSE 5.8 mph - 0.02 in Rain Light Rain